Walla Walla, WA

6:10 AM PST on January 17, 2018 (GMT -0800)
Walla Walla Regional

Weather History for KALW - March, 2014

Change the Weather History Date:

Saturday, March 8, 2014

  Actual Average Record
Temperature  
Mean Temperature 54 °F 44 °F  
Max Temperature 66 °F 53 °F 75 °F (2004)
Min Temperature 41 °F 36 °F 27 °F (2002)
Degree Days  
Heating Degree Days 12 21  
Month to date heating degree days 175  
Since 1 July heating degree days 3952  
Cooling Degree Days 0 0  
Month to date cooling degree days 0  
Year to date cooling degree days 0  
Growing Degree Days 4 (Base 50)    
Moisture  
Dew Point 35 °F    
Average Humidity 48    
Maximum Humidity 73    
Minimum Humidity 25    
Precipitation  
Precipitation 0.02 in 0.07 in 0.32 in (2006)
Month to date precipitation 0.56  
Year to date precipitation 4.85  
Snow  
Snow 0.00 in 0.00 in 0.50 in (1990)
Month to date snowfall 0.4  
Year to date snowfall 5.4  
Since 1 July snowfall 11.1  
Snow Depth -    
Sea Level Pressure  
Sea Level Pressure 30.03 in    
Wind  
Wind Speed 10 mph (SSE)    
Max Wind Speed 30 mph    
Max Gust Speed 40 mph    
Visibility 10 miles    
Events Rain    
T = Trace of Precipitation, MM = Missing Value Source: NWS Daily Summary

Daily Weather History Graph

Daily Weather History Graph

Search for Another Location

Airport or City:

Trip Planner

Search our weather history database for the weather conditions in past years. The results will help you decide how hot, cold, wet, or windy it might be!

Date:

Astronomy

Mar. 08, 2014 Rise Set
Actual Time 6:18 AM PST 5:49 PM PST
Civil Twilight 5:49 AM PST 6:19 PM PST
Nautical Twilight 5:14 AM PST 6:54 PM PST
Astronomical Twilight 4:39 AM PST 7:29 PM PST
Moon 10:43 AM PST (3/8) 1:11 AM PST (3/8)
Length of Visible Light 12h 30m
Length of Day
11h 30m
First Quarter, 53% of the Moon is Illuminated
Mar 8
First Quarter
Mar 16
Full
Mar 23
Last Quarter
Mar 30
New
Apr 7
First Quarter

Hourly Weather History & Observations

Time (PST) Temp. Windchill Dew Point Humidity Pressure Visibility Wind Dir Wind Speed Gust Speed Precip Events Conditions
12:53 AM 44.1 °F 40.8 °F 33.1 °F 65% 30.18 in 10.0 mi ESE 5.8 mph - N/A   Clear
1:53 AM 44.1 °F 39.5 °F 33.1 °F 65% 30.16 in 10.0 mi East 8.1 mph - N/A   Clear
2:53 AM 44.1 °F 40.1 °F 33.1 °F 65% 30.15 in 10.0 mi ESE 6.9 mph - N/A   Clear
3:53 AM 41.0 °F - 32.0 °F 70% 30.16 in 10.0 mi Calm Calm - N/A   Clear
4:53 AM 41.0 °F - 33.1 °F 73% 30.14 in 10.0 mi Calm Calm - N/A   Clear
5:53 AM 44.1 °F - 30.9 °F 60% 30.12 in 10.0 mi Calm Calm - N/A   Clear
6:53 AM 46.9 °F - 32.0 °F 56% 30.11 in 10.0 mi North 4.6 mph - N/A   Clear
6:55 AM 46.4 °F - 32.0 °F 57% 30.10 in 10.0 mi North - - N/A   Clear
7:53 AM 53.1 °F - 32.0 °F 45% 30.11 in 10.0 mi WNW 4.6 mph - N/A   Clear
8:53 AM 53.1 °F - 37.9 °F 57% 30.09 in 10.0 mi NNW 8.1 mph - N/A   Clear
8:55 AM 53.6 °F - 37.4 °F 54% 30.08 in 10.0 mi North - - N/A   Overcast
9:53 AM 57.9 °F - 39.0 °F 49% 30.09 in 10.0 mi NNW 8.1 mph - N/A   Clear
10:53 AM 60.1 °F - 39.0 °F 46% 30.06 in 10.0 mi West 9.2 mph - N/A   Clear
11:53 AM 66.9 °F - 30.9 °F 26% 30.03 in 10.0 mi South 16.1 mph - N/A   Clear
12:53 PM 66.0 °F - 30.0 °F 26% 30.02 in 10.0 mi South 12.7 mph 23.0 mph N/A   Partly Cloudy
1:53 PM 66.9 °F - 30.9 °F 26% 30.00 in 10.0 mi South 18.4 mph - N/A   Mostly Cloudy
2:53 PM 66.9 °F - 30.0 °F 25% 29.98 in 10.0 mi SSE 15.0 mph 27.6 mph N/A   Overcast
3:53 PM 64.9 °F - 32.0 °F 29% 29.96 in 10.0 mi SSE 13.8 mph - N/A   Overcast
4:53 PM 64.0 °F - 34.0 °F 33% 29.95 in 10.0 mi SSE 16.1 mph 23.0 mph 0.00 in   Overcast
5:53 PM 61.0 °F - 37.0 °F 41% 29.95 in 10.0 mi SSE 20.7 mph - 0.00 in Rain Light Rain
6:53 PM 59.0 °F - 39.9 °F 49% 29.95 in 10.0 mi SSE 20.7 mph 26.5 mph 0.00 in Rain Light Rain
7:53 PM 60.1 °F - 41.0 °F 49% 29.91 in 10.0 mi SSE 23.0 mph 32.2 mph 0.02 in Rain Light Rain
8:53 PM 62.1 °F - 41.0 °F 46% 29.91 in 10.0 mi SSE 28.8 mph 34.5 mph 0.00 in   Overcast
9:53 PM 63.0 °F - 39.9 °F 43% 29.88 in 10.0 mi South 26.5 mph 34.5 mph N/A   Overcast
10:53 PM 63.0 °F - 41.0 °F 45% 29.86 in 10.0 mi SSE 26.5 mph 34.5 mph 0.00 in   Overcast
11:53 PM 63.0 °F - 43.0 °F 48% 29.85 in 10.0 mi South 29.9 mph 40.3 mph 0.00 in Rain Light Rain